Back to catalog

CZ-6A DEB

AliveSSO
NORAD 55898·DEBRIS·🇨🇳 China

Launched Nov 11, 2022 from Taiyuan Satellite Launch Center

Loading…

Next Passes (next 24 hours)

TLE

FreshSource: Space-Track

Epoch: Sep 13, 2026, 22:13 UTC

1 55898U 22151AAW 26256.92629801  .00000776  00000-0  42219-3 0  9995
2 55898  98.8289 257.1737 0058094 103.4263 257.3394 14.14261411191445

Track CZ-6A DEB in real time with AllMySat

Download on the App Store